Regional Weather Roundup
Issued by NWS

Home | Current Version | Previous Version | Graphics & Text | Print | Product List | Glossary On
Versions: 1 2 3 4 5 6 7 8 9 10 11 12 13 14 15 16 17 18 19 20 21 22 23 24 25 26 27
000
ASUS45 KCYS 300410
RWRWY

WYOMING REGIONAL WEATHER ROUNDUP
NATIONAL WEATHER SERVICE CHEYENNE WY
1000 PM MDT SAT APR 29 2017

NOTE:  "FAIR" INDICATES FEW OR NO CLOUDS BELOW 12,000 FEET
WITH NO SIGNIFICANT WEATHER AND/OR OBSTRUCTIONS TO VISIBILITY.

WYZ001-300500-
YELLOWSTONE NATIONAL PARK

CITY           SKY/WX    TMP DP  RH WIND       PRES   REMARKS
LK YELLOWSTONE   N/A     25  22  88 CALM      30.21R
W YELLOWSTONE  NOT AVBL

$$
WYZ002>013-054>058-071-098>099-300500-
NORTHERN WYOMING

CITY           SKY/WX    TMP DP  RH WIND       PRES   REMARKS
JACKSON        FAIR      36  21  55 W5        30.20R WCI  32
CODY           FAIR      37  29  72 S3        30.17R
GREYBULL       FAIR      43  23  45 S9        30.16R
WORLAND        FAIR      38  30  73 S13       30.17R WCI  30
SHERIDAN       FAIR      31  27  85 S5        30.17S WCI  26
BUFFALO        FAIR      33  21  61 S10       30.19R WCI  25
GILLETTE       FAIR      31  23  72 SW13      30.20R WCI  21
HULETT         FAIR      36  25  64 S8        30.21R WCI  29
NEWCASTLE      FAIR      36  25  64 NW6       30.21R WCI  31

$$
WYZ014>020-022>026-101>103-300500-
CENTRAL WYOMING

CITY           SKY/WX    TMP DP  RH WIND       PRES   REMARKS
BIG PINEY      FAIR      27  20  75 NW9       30.20R WCI  18
PINEDALE       FAIR      28  21  74 W6        30.21R WCI  22
DUBOIS         FAIR      30  21  69 S8        30.18R WCI  23
LANDER         FAIR      29  20  69 E6        30.19R WCI  23
RIVERTON       FAIR      32  23  69 S8        30.21R WCI  25
CASPER         FAIR      30  23  75 CALM      30.21R
DOUGLAS        FAIR      31  23  72 E3        30.22S

$$
WYZ021-027>030-104>119-300500-
SOUTHERN WYOMING

CITY           SKY/WX    TMP DP  RH WIND       PRES   REMARKS
EVANSTON       FAIR      32  21  64 SW5       30.24R WCI  27
KEMMERER         N/A     32  23  69 W6        30.23R WCI  26
ROCK SPRINGS   FAIR      32  18  56 E7        30.22R WCI  26
DIXON            N/A     31  23  71 NE12      30.22R WCI  22
RAWLINS        FAIR      26  21  81 E8        30.20R WCI  18
SARATOGA       FAIR      25  18  74 CALM      30.21R
LARAMIE        FAIR      19  16  88 W7        30.19R WCI  10
CHEYENNE       FAIR      30  16  56 NW9       30.19R WCI  22
TORRINGTON     FAIR      36  26  67 NW9       30.19S WCI  29
PINE BLUFFS    CLOUDY    32  21  64 NW10      30.19R WCI  24

$$




USA.gov is the U.S. government's official web portal to all federal, state and local government web resources and services.